Home   Weather   Oral   Past weeks

Flag for Kazakhstan Past Weather in Oral, Kazakhstan — Yesterday and Last 2 Weeks

Now
52 °F

Sprinkles. Mostly cloudy.


Feels Like: 48 °F
Forecast: 45 / 58 °F
Wind: 10 mph from Southwest

Location: Uralsk

Current Time: Sep 28, 2016 at 1:34:27 PM

Latest Report: Sep 28, 2016 at 1:00 PM


Visibility: N/A

Pressure: 29.74 "Hg

Humidity: 88%

Dew Point: 48 °F

Location of OralLocation

Past Weather in Oral — Graph

°F

Oral Temperature Yesterday

Maximum temperature yesterday: 55 °F (at 3:30 PM)
Minimum temperature yesterday: 50 °F (at 6:00 AM)
Average temperature yesterday: 52 °F

High & Low Weather Summary for the Past Weeks

 TemperatureHumidityPressure
High77 °F (Sep 24, 3:00 PM)100% (Sep 13, 4:00 PM)30.07 "Hg (Sep 13, 4:00 PM)
Low39 °F (Sep 16, 7:00 AM)28% (Sep 24, 4:00 PM)29.47 "Hg (Sep 14, 6:00 AM)
Average56 °F78%29.83 "Hg
* Reported Sep 13 12:00 PM — Sep 28 12:30 PM, Oral, Weather by CustomWeather, © 2016

Note: Actual official high and low records may vary slightly from our data, if they occured in-between our weather recording intervals... More about our weather records

Advertising

Oral Weather History for the Previous 24 Hours

Scroll right to see more
 ConditionsComfort  
Time TempWeatherWind HumidityBarometerVisibility
12:30 PM
Wed, Sep 28
52 °FMostly cloudy.8 mph94%29.74 "HgN/A
12:00 PM52 °FMostly cloudy.10 mph94%29.74 "HgN/A
11:30 AM50 °FSprinkles. Fog.10 mph94%29.74 "Hg3 mi
11:00 AM52 °FMostly cloudy.8 mph88%29.74 "HgN/A
10:30 AM52 °FSprinkles. Mostly cloudy.10 mph88%29.74 "HgN/A
10:00 AM52 °FSprinkles. Mostly cloudy.8 mph88%29.74 "HgN/A
9:30 AM52 °FMostly cloudy.8 mph88%29.74 "HgN/A
9:00 AM50 °FMostly cloudy.6 mph100%29.74 "HgN/A
8:30 AM50 °FBroken clouds.6 mph94%29.74 "HgN/A
8:00 AM50 °FMostly cloudy.6 mph82%29.74 "HgN/A
7:30 AM50 °FMostly cloudy.6 mph94%29.74 "HgN/A
7:00 AM50 °FSprinkles. Mostly cloudy.6 mph94%29.74 "HgN/A
6:30 AM50 °FMostly cloudy.6 mph94%29.74 "HgN/A
6:00 AM50 °FMostly cloudy.8 mph94%29.74 "HgN/A
5:30 AM50 °FMostly cloudy.8 mph94%29.74 "HgN/A
5:00 AM50 °FMostly cloudy.8 mph94%29.77 "HgN/A
4:00 AM50 °FMostly cloudy.6 mph94%29.77 "HgN/A
3:00 AM50 °FMostly cloudy.6 mph100%29.77 "HgN/A
2:00 AM50 °FOvercast.6 mph100%29.77 "HgN/A
1:00 AM50 °FOvercast.10 mph94%29.80 "HgN/A
12:00 AM50 °FOvercast.6 mph94%29.80 "HgN/A
11:00 PM
Tue, Sep 27
50 °FSprinkles. Overcast.6 mph94%29.83 "HgN/A
10:00 PM50 °FPartly cloudy.6 mph94%29.83 "HgN/A
9:00 PM50 °FPartly cloudy.6 mph94%29.83 "HgN/A
8:00 PM50 °FPartly cloudy.6 mph88%29.83 "HgN/A
7:30 PM50 °FPartly cloudy.3 mph94%29.83 "HgN/A
7:00 PM52 °FBroken clouds.3 mph94%29.83 "HgN/A
6:30 PM54 °FBroken clouds.3 mph88%29.83 "HgN/A
6:00 PM54 °FPartly sunny.6 mph82%29.83 "HgN/A
5:30 PM54 °FPartly sunny.10 mph88%29.83 "HgN/A
5:00 PM55 °FSprinkles. Mostly cloudy.8 mph88%29.83 "HgN/A
4:30 PM55 °FMostly cloudy.10 mph82%29.83 "HgN/A
4:00 PM55 °FSprinkles. Mostly cloudy.8 mph88%29.83 "HgN/A
3:30 PM55 °FMostly cloudy.8 mph94%29.83 "HgN/A
3:00 PM54 °FSprinkles. Mostly cloudy.8 mph94%29.83 "HgN/A
2:30 PM54 °FSprinkles. Mostly cloudy.10 mph94%29.86 "HgN/A
2:00 PM54 °FSprinkles. Mostly cloudy.8 mph94%29.86 "HgN/A
1:30 PM54 °FSprinkles. Mostly cloudy.13 mph94%29.86 "HgN/A
1:00 PM52 °FMostly cloudy.13 mph100%29.86 "HgN/A
Weather by CustomWeather, © 2016

See weather overviewHow to use our weather pages